GW6872 Weather Reports


time (UTC)temp
C
wind
direction
speed
KPH
gust
KPH
rain 1hr
cm
rain 24hr
cm
rain mn
cm
humidity
%
barometer
mb
20260506094918 12 192 1.6 8.0 0.00 0.00 0.00 57 1007.1
20260506094421 12 24 0.0 3.2 0.00 0.00 0.00 57 1006.8
20260506093919 12 115 1.6 3.2 0.00 0.00 0.00 56 1007.1
20260506093420 12 239 0.0 1.6 0.00 0.00 0.00 57 1007.1
20260506092920 12 145 1.6 4.8 0.00 0.00 0.00 57 1006.8
20260506092421 12 237 1.6 3.2 0.00 0.00 0.00 57 1006.8
20260506091921 12 71 1.6 3.2 0.00 0.00 0.00 58 1006.8
20260506091420 12 64 3.2 4.8 0.00 0.00 0.00 58 1006.8
20260506090918 12 106 0.0 3.2 0.00 0.00 0.00 59 1006.8
20260506090420 12 292 3.2 8.0 0.00 0.00 0.00 59 1006.8
20260506085920 11 303 1.6 4.8 0.00 0.00 0.00 61 1007.1
20260506085418 11 173 0.0 3.2 0.00 0.00 0.00 62 1006.8
20260506084923 11 206 0.0 1.6 0.00 0.00 0.00 63 1006.8
20260506084421 11 93 3.2 4.8 0.00 0.00 0.00 63 1006.8
20260506083919 11 149 1.6 4.8 0.00 0.00 0.00 63 1006.8
20260506083418 11 18 3.2 3.2 0.00 0.00 0.00 63 1006.8
20260506082918 11 122 0.0 3.2 0.00 0.00 0.00 64 1006.8
20260506082419 11 107 3.2 4.8 0.00 0.00 0.00 64 1006.4
20260506081918 11 186 3.2 4.8 0.00 0.00 0.00 65 1006.8
20260506081421 11 330 0.0 0.0 0.00 0.00 0.00 66 1006.8
20260506080921 11 51 1.6 1.6 0.00 0.00 0.00 66 1006.8
20260506080420 11 231 1.6 3.2 0.00 0.00 0.00 67 1006.8
20260506073419 10 125 0.0 4.8 0.00 0.00 0.00 72 1006.8
20260506072919 10 295 0.0 3.2 0.00 0.00 0.00 72 1006.8
20260506072418 9 152 1.6 3.2 0.00 0.00 0.00 73 1006.8
20260506071920 9 261 0.0 3.2 0.00 0.00 0.00 74 1006.8
20260506071418 9 138 1.6 3.2 0.00 0.00 0.00 74 1006.8
20260506070919 10 140 0.0 1.6 0.00 0.00 0.00 73 1006.8
20260506070419 9 198 0.0 1.6 0.00 0.00 0.00 74 1006.8
20260506062420 8 191 0.0 0.0 0.00 0.00 0.00 74 1006.4
20260506061921 9 104 0.0 1.6 0.00 0.00 0.00 73 1006.4
20260506061420 8 208 0.0 0.0 0.00 0.00 0.00 74 1006.8
20260506060920 9 83 0.0 3.2 0.00 0.00 0.00 74 1006.8
20260506060419 8 132 0.0 1.6 0.00 0.00 0.00 74 1006.4
20260506050919 8 278 1.6 1.6 0.00 0.00 0.00 76 1006.4
20260506050420 9 0 1.6 3.2 0.00 0.00 0.00 76 1006.1
20260506044921 8 297 0.0 1.6 0.00 0.00 0.00 76 1006.4
20260506044419 8 355 0.0 0.0 0.00 0.00 0.00 76 1006.1
20260506043918 8 50 0.0 3.2 0.00 0.00 0.00 76 1006.1
20260506043419 8 345 0.0 1.6 0.00 0.00 0.00 77 1006.4
20260506042919 9 150 0.0 0.0 0.00 0.00 0.00 76 1006.4
20260506042418 9 193 0.0 0.0 0.00 0.00 0.00 76 1006.1
20260506041918 9 152 1.6 3.2 0.00 0.00 0.00 75 1006.1
20260506041418 9 243 0.0 1.6 0.00 0.00 0.00 74 1006.1
20260506040920 9 271 0.0 1.6 0.00 0.00 0.00 74 1006.1
20260506040418 9 163 0.0 1.6 0.00 0.00 0.00 74 1006.4
20260506035918 9 254 0.0 0.0 0.00 0.00 0.00 74 1006.1
20260506035418 9 193 0.0 1.6 0.00 0.00 0.00 74 1006.1
20260506034919 9 143 0.0 1.6 0.00 0.00 0.00 74 1006.1
20260506034420 9 127 0.0 0.0 0.00 0.00 0.00 74 1006.1
20260506033918 10 105 0.0 1.6 0.00 0.00 0.00 74 1006.1
20260506033421 10 128 0.0 0.0 0.00 0.00 0.00 74 1006.1
20260506032921 10 319 0.0 1.6 0.00 0.00 0.00 74 1006.1
20260506032421 10 78 3.2 3.2 0.00 0.00 0.00 74 1006.4
20260506031918 10 151 0.0 1.6 0.00 0.00 0.00 75 1006.4
20260506031420 10 127 1.6 1.6 0.00 0.00 0.00 75 1006.1
20260506030921 10 182 0.0 0.0 0.00 0.00 0.00 75 1006.4
20260506030421 10 180 0.0 1.6 0.00 0.00 0.00 75 1006.1
20260506025919 10 216 1.6 1.6 0.00 0.00 0.00 75 1006.1
20260506025419 10 191 0.0 0.0 0.00 0.00 0.00 75 1006.4
20260506024918 10 346 1.6 3.2 0.00 0.00 0.00 75 1006.4
20260506024418 10 163 0.0 3.2 0.00 0.00 0.00 76 1006.4
20260506023923 10 270 0.0 1.6 0.00 0.00 0.00 75 1006.4
20260506023418 10 217 0.0 0.0 0.00 0.00 0.00 75 1006.4
20260506022919 10 316 0.0 1.6 0.00 0.00 0.00 75 1006.4
20260506022418 11 202 1.6 3.2 0.00 0.00 0.00 75 1006.4
20260506021920 11 195 0.0 0.0 0.00 0.00 0.00 75 1006.4
20260506021418 11 257 0.0 1.6 0.00 0.00 0.00 75 1006.4
20260506020918 11 208 0.0 0.0 0.00 0.00 0.00 74 1006.4
20260506020421 11 220 0.0 1.6 0.00 0.00 0.00 74 1006.4
20260506015918 11 217 0.0 1.6 0.00 0.00 0.00 74 1006.4
20260506015419 11 261 0.0 1.6 0.00 0.00 0.00 74 1006.4
20260506014919 11 232 0.0 0.0 0.00 0.00 0.00 74 1006.8
20260506014421 11 315 0.0 1.6 0.00 0.00 0.00 74 1006.8
20260506013919 11 147 1.6 1.6 0.00 0.00 0.00 73 1006.8
20260506013420 11 200 0.0 0.0 0.00 0.00 0.00 73 1006.8
20260506012919 11 241 0.0 0.0 0.00 0.00 0.00 73 1006.4
20260506012421 11 213 0.0 0.0 0.00 0.00 0.00 73 1006.8
20260506011920 11 305 0.0 0.0 0.00 0.00 0.00 73 1006.8
20260506011419 11 167 0.0 0.0 0.00 0.00 0.00 73 1006.8
20260506010918 11 9 0.0 1.6 0.00 0.00 0.00 73 1006.4
20260506010418 11 39 1.6 3.2 0.00 0.00 0.00 72 1006.4
20260506005919 11 201 0.0 3.2 0.00 0.00 0.00 72 1006.8
20260506005418 11 341 0.0 0.0 0.00 0.00 0.00 72 1006.8
20260506004918 11 322 0.0 1.6 0.00 0.00 0.00 72 1006.8
20260506004418 11 185 0.0 1.6 0.00 0.00 0.00 72 1006.4
20260506003919 11 215 0.0 1.6 0.00 0.00 0.00 72 1006.8
20260506003421 11 225 0.0 0.0 0.00 0.00 0.00 72 1006.8
20260506002921 11 150 0.0 1.6 0.00 0.00 0.00 72 1006.8
20260506002421 11 356 0.0 1.6 0.00 0.00 0.00 72 1007.1
20260506001918 11 324 1.6 3.2 0.00 0.00 0.00 72 1006.8
20260506001420 11 23 0.0 1.6 0.00 0.00 0.00 72 1007.1
20260506000921 11 226 0.0 1.6 0.00 0.00 0.00 72 1007.1
20260506000423 11 187 0.0 1.6 0.00 0.00 0.00 72 1006.8
20260505235918 11 19 0.0 1.6 0.00 0.00 0.00 72 1006.8
20260505235418 11 239 0.0 0.0 0.00 0.00 0.00 71 1006.8
20260505234920 11 150 0.0 1.6 0.00 0.00 0.00 71 1006.8
20260505234419 11 208 0.0 3.2 0.00 0.00 0.00 71 1006.8
20260505233918 11 18 1.6 3.2 0.00 0.00 0.00 70 1006.8
20260505233419 11 47 1.6 1.6 0.00 0.00 0.00 71 1006.8
20260505232919 11 209 1.6 3.2 0.00 0.00 0.00 71 1006.8
20260505232418 11 268 1.6 3.2 0.00 0.00 0.00 70 1006.8
20260505231921 11 330 0.0 1.6 0.00 0.00 0.00 71 1006.8
20260505231419 12 188 0.0 1.6 0.00 0.00 0.00 72 1006.8
20260505230919 12 221 0.0 1.6 0.00 0.00 0.00 73 1006.8
20260505230418 12 20 1.6 1.6 0.00 0.00 0.00 74 1007.1
20260505225920 12 13 1.6 4.8 0.00 0.00 0.00 77 1006.8
20260505225418 12 221 0.0 1.6 0.00 0.00 0.00 78 1006.8
20260505224919 12 79 0.0 1.6 0.00 0.00 0.00 79 1006.8
20260505224418 12 306 0.0 0.0 0.00 0.00 0.00 80 1006.8
20260505223919 12 84 0.0 0.0 0.00 0.00 0.00 79 1006.8
20260505223419 12 345 0.0 1.6 0.00 0.00 0.00 78 1006.8
20260505222918 12 287 0.0 1.6 0.00 0.00 0.00 77 1006.8
20260505222420 12 219 1.6 1.6 0.00 0.00 0.00 75 1006.8
20260505221918 12 237 0.0 1.6 0.00 0.00 0.00 75 1006.8
20260505221421 12 235 0.0 1.6 0.00 0.00 0.00 74 1006.8
20260505220920 12 231 0.0 1.6 0.00 0.00 0.00 72 1006.8
20260505220420 12 282 0.0 1.6 0.00 0.00 0.00 71 1006.8
20260505215921 13 210 0.0 1.6 0.00 0.00 0.00 67 1006.8
20260505215422 13 275 0.0 0.0 0.00 0.00 0.00 66 1006.8
20260505214922 13 224 0.0 1.6 0.00 0.00 0.00 66 1006.8
20260505214422 13 190 0.0 0.0 0.00 0.00 0.00 67 1006.8
20260505213921 12 275 0.0 0.0 0.00 0.00 0.00 67 1006.4
20260505213420 12 142 0.0 0.0 0.00 0.00 0.00 67 1006.8
20260505212920 12 284 0.0 0.0 0.00 0.00 0.00 68 1006.4
20260505212419 12 301 0.0 1.6 0.00 0.00 0.00 68 1006.4
20260505211922 12 282 1.6 4.8 0.00 0.00 0.00 67 1006.4
20260505211418 13 291 0.0 1.6 0.00 0.00 0.00 67 1006.4
20260505210918 12 191 0.0 0.0 0.00 0.00 0.00 67 1006.4
20260505210418 12 229 0.0 0.0 0.00 0.00 0.00 67 1006.8
20260505205918 12 336 0.0 4.8 0.00 0.00 0.00 67 1006.4
20260505205422 12 298 0.0 3.2 0.00 0.00 0.00 68 1006.8
20260505204921 12 307 1.6 4.8 0.00 0.00 0.00 68 1006.4
20260505204418 12 355 0.0 4.8 0.00 0.00 0.00 68 1006.4
20260505203919 13 342 1.6 3.2 0.00 0.00 0.00 68 1006.4
20260505203420 13 36 0.0 0.0 0.00 0.00 0.00 69 1006.4
20260505202919 13 325 0.0 0.0 0.00 0.00 0.00 69 1006.4
20260505202421 13 324 0.0 1.6 0.00 0.00 0.00 68 1006.4
20260505201920 13 327 0.0 0.0 0.00 0.00 0.00 69 1006.4
20260505201418 13 240 0.0 0.0 0.00 0.00 0.00 68 1006.4
20260505200918 13 266 0.0 1.6 0.00 0.00 0.00 65 1006.4
20260505200420 13 303 0.0 0.0 0.00 0.00 0.00 63 1006.1
20260505195919 13 319 0.0 1.6 0.00 0.00 0.00 62 1006.1
20260505195418 13 236 0.0 3.2 0.00 0.00 0.00 62 1006.1
20260505194921 14 283 0.0 0.0 0.00 0.00 0.00 61 1005.8
20260505194420 15 276 0.0 0.0 0.00 0.00 0.00 61 1005.8
20260505193918 15 188 0.0 0.0 0.00 0.00 0.00 59 1005.8
20260505193421 15 18 1.6 3.2 0.00 0.00 0.00 58 1005.8
20260505192921 15 266 0.0 0.0 0.00 0.00 0.00 58 1005.8
20260505192421 15 263 0.0 0.0 0.00 0.00 0.00 59 1005.4
20260505191923 15 336 1.6 1.6 0.00 0.00 0.00 56 1005.4
20260505191418 15 289 0.0 0.0 0.00 0.00 0.00 57 1005.4
20260505190918 15 270 1.6 1.6 0.00 0.00 0.00 55 1005.4
20260505190418 15 67 0.0 0.0 0.00 0.00 0.00 55 1005.4
20260505185924 15 255 0.0 0.0 0.00 0.00 0.00 55 1005.4
20260505185424 15 271 0.0 0.0 0.00 0.00 0.00 55 1005.4
20260505184919 15 258 0.0 0.0 0.00 0.00 0.00 54 1005.4
20260505184421 15 221 0.0 0.0 0.00 0.00 0.00 54 1005.1
20260505183919 15 181 0.0 0.0 0.00 0.00 0.00 54 1005.1
20260505183423 15 246 0.0 0.0 0.00 0.00 0.00 55 1005.4
20260505182920 15 351 1.6 3.2 0.00 0.00 0.00 54 1005.1
20260505182421 15 311 0.0 0.0 0.00 0.00 0.00 54 1005.1
20260505181920 15 297 0.0 3.2 0.00 0.00 0.00 54 1005.4
20260505181422 15 209 0.0 0.0 0.00 0.00 0.00 55 1005.1
20260505180919 15 299 1.6 3.2 0.00 0.00 0.00 54 1005.1
20260505180421 15 202 0.0 1.6 0.00 0.00 0.00 55 1005.1
20260505175922 15 8 1.6 4.8 0.00 0.00 0.00 55 1005.4
20260505175419 15 318 0.0 1.6 0.00 0.00 0.00 54 1005.1
20260505174919 15 232 0.0 1.6 0.00 0.00 0.00 54 1005.1
20260505174421 15 342 0.0 3.2 0.00 0.00 0.00 54 1005.4
20260505173921 15 277 1.6 1.6 0.00 0.00 0.00 54 1005.4
20260505173418 15 79 0.0 1.6 0.00 0.00 0.00 54 1005.1
20260505172920 16 280 0.0 0.0 0.00 0.00 0.00 54 1005.1
20260505172418 16 204 0.0 0.0 0.00 0.00 0.00 53 1005.4
20260505171918 16 273 0.0 0.0 0.00 0.00 0.00 53 1005.4
20260505171419 16 309 1.6 3.2 0.00 0.00 0.00 52 1005.1
20260505170923 16 295 1.6 3.2 0.00 0.00 0.00 52 1005.4
20260505170421 16 275 1.6 1.6 0.00 0.00 0.00 52 1005.4
20260505165920 16 346 0.0 0.0 0.00 0.00 0.00 51 1005.4
20260505165421 16 338 1.6 3.2 0.00 0.00 0.00 51 1005.4
20260505164918 16 2 3.2 4.8 0.00 0.00 0.00 51 1005.4
20260505164421 16 345 0.0 3.2 0.00 0.00 0.00 50 1005.1
20260505163919 16 315 1.6 1.6 0.00 0.00 0.00 50 1005.4
20260505163424 16 253 0.0 4.8 0.00 0.00 0.00 51 1005.1
20260505162918 16 314 1.6 9.7 0.00 0.00 0.00 50 1005.4
20260505162421 16 49 1.6 4.8 0.00 0.00 0.00 50 1005.4
20260505161920 17 272 1.6 3.2 0.00 0.00 0.00 49 1005.4
20260505161419 17 310 1.6 4.8 0.00 0.00 0.00 49 1005.1
20260505160923 17 333 0.0 1.6 0.00 0.00 0.00 49 1005.4
20260505160421 17 286 1.6 3.2 0.00 0.00 0.00 49 1005.4
20260505152921 18 34 1.6 1.6 0.00 0.00 0.00 48 1005.4
20260505152422 17 78 0.0 0.0 0.00 0.00 0.00 48 1005.4
20260505151923 17 261 0.0 1.6 0.00 0.00 0.00 48 1005.4
20260505151428 17 136 0.0 0.0 0.00 0.00 0.00 49 1005.4
20260505150918 17 189 0.0 1.6 0.00 0.00 0.00 48 1005.4
20260505150421 17 101 0.0 1.6 0.00 0.00 0.00 48 1005.4
20260505140423 18 160 0.0 0.0 0.00 0.00 0.00 46 1005.8
20260505124918 17 56 1.6 4.8 0.00 0.00 0.00 50 1005.8
20260505124420 17 261 0.0 1.6 0.00 0.00 0.00 49 1006.1
20260505123923 17 14 0.0 3.2 0.00 0.00 0.00 49 1006.1
20260505123418 18 85 1.6 3.2 0.00 0.00 0.00 49 1006.1
20260505122922 18 258 0.0 1.6 0.00 0.00 0.00 49 1005.8
20260505122419 17 307 0.0 1.6 0.00 0.00 0.00 49 1006.1
20260505121921 17 236 0.0 3.2 0.00 0.00 0.00 50 1005.8
20260505121418 17 146 1.6 8.0 0.00 0.00 0.00 50 1006.1
20260505120922 18 335 0.0 1.6 0.00 0.00 0.00 48 1006.1
20260505120418 18 277 0.0 1.6 0.00 0.00 0.00 48 1005.8
20260505115919 18 171 0.0 3.2 0.00 0.00 0.00 48 1006.1
20260505115421 18 178 0.0 1.6 0.00 0.00 0.00 48 1006.1
20260505114918 18 249 0.0 1.6 0.00 0.00 0.00 49 1005.8
20260505114418 18 218 0.0 1.6 0.00 0.00 0.00 49 1006.1
20260505113918 18 317 3.2 4.8 0.00 0.00 0.00 49 1006.1
20260505113419 18 93 1.6 3.2 0.00 0.00 0.00 49 1006.1
20260505112918 18 304 0.0 3.2 0.00 0.00 0.00 48 1006.1
20260505112420 19 18 0.0 3.2 0.00 0.00 0.00 47 1006.4
20260505111920 19 292 0.0 0.0 0.00 0.00 0.00 47 1006.1
20260505111422 19 311 1.6 3.2 0.00 0.00 0.00 47 1006.1
20260505110920 18 216 0.0 1.6 0.00 0.00 0.00 51 1006.1
20260505110419 19 227 0.0 1.6 0.00 0.00 0.00 49 1006.1
20260505101920 16 169 1.6 3.2 0.00 0.00 0.00 58 1006.8
20260505101421 15 146 1.6 4.8 0.00 0.00 0.00 60 1006.8
20260505100921 15 317 0.0 3.2 0.00 0.00 0.00 59 1006.8
20260505100421 15 208 0.0 3.2 0.00 0.00 0.00 60 1006.8
20260505095922 15 215 0.0 1.6 0.00 0.00 0.00 61 1006.8
20260505095421 14 176 0.0 8.0 0.00 0.00 0.00 63 1006.8